Zurück zum Katalog

VERTECS

AktivWissenschaftSSO
NORAD 69506·PAYLOAD·🇯🇵 Japan

Gestartet Jun 12, 2026 von Tanegashima Space Center

Loading…

Nächste Überflüge (nächste 24 Stunden)

TLE

AktuellSource: Space-Track

Epoche: Sep 14, 2026, 09:48 UTC

1 69506U 26132E   26257.40887347  .00002007  00000-0  16078-3 0  9997
2 69506  97.6590 320.0191 0013830  17.0088 343.1597 15.01214155 14157

Verfolge VERTECS in Echtzeit mit AllMySat

Download on the App Store